Date String (YYYY-MM-DD hh:mm:ss) UTC,Instrument flags,Ambient pressure (hPa),Sample flow (lpm),Bypass flow (lpm),Sample temperature (°C),Ambient temperature (°C),ASC tube jacket temperature (°C),LED temperature (°C),Box temperature (°C),Sample RH (%),Span deviation,Mass concentration (μg/m³),Mass concentration (μg/m³),Mass concentration (μg/m³)
DateTimeUTC,F1_M11,P_M11,Q1_M11,Q2_M11,T1_M11,T2_M11,T3_M11,T4_M11,T5_M11,U1_M11,ZSPAN_M11,X2_M11,X0_M11,X1_M11
2023-05-12 22:00:00,,0831.2,5.01,0.00,28.3,26.9,00.0,36.6,29.9,21.4,0000.0,0000.38,0001.51,0000.16
2023-05-12 22:01:00,,0831.2,4.98,0.00,28.3,27.0,00.0,36.6,29.9,21.9,0000.0,0000.39,0002.54,0000.15
2023-05-12 22:02:00,,0831.2,5.01,0.00,28.3,27.0,00.0,36.6,29.9,20.9,0000.0,0000.38,0001.95,0000.15
2023-05-12 22:03:00,,0831.2,5.00,0.00,28.3,27.0,00.0,36.6,29.9,20.5,0000.0,0000.38,0001.94,0000.16
2023-05-12 22:04:00,,0831.1,5.00,0.00,28.3,26.9,00.0,36.6,30.0,20.6,0000.0,0000.36,0001.91,0000.15
2023-05-12 22:05:00,,0831.1,5.00,0.00,28.3,26.9,00.0,36.7,30.0,20.8,0000.0,0000.36,0001.88,0000.16
2023-05-12 22:06:00,,0831.2,5.00,0.00,28.3,26.9,00.0,36.7,29.9,20.4,0000.0,0000.36,0001.90,0000.16
2023-05-12 22:07:00,,0831.2,5.00,0.00,28.4,27.0,00.0,36.7,30.0,20.1,0000.0,0000.37,0001.91,0000.17
2023-05-12 22:08:00,,0831.2,5.00,0.00,28.4,27.0,00.0,36.7,30.0,20.1,0000.0,0000.36,0001.86,0000.17
2023-05-12 22:09:00,,0831.2,4.99,0.00,28.4,27.0,00.0,36.7,30.0,20.5,0000.0,0000.34,0001.84,0000.17
2023-05-12 22:10:00,,0831.3,5.00,0.00,28.4,27.0,00.0,36.7,30.0,19.5,0000.0,0000.30,0001.79,0000.17
2023-05-12 22:11:00,,0831.3,5.00,0.00,28.4,27.0,00.0,36.7,30.0,19.9,0000.0,0000.30,0001.86,0000.17
2023-05-12 22:12:00,,0831.3,5.00,0.00,28.4,27.0,00.0,36.7,30.0,20.1,0000.0,0000.31,0001.07,0000.18
2023-05-12 22:13:00,,0831.3,4.99,0.00,28.4,27.0,00.0,36.7,30.0,19.8,0000.0,0000.34,0001.14,0000.18
2023-05-12 22:14:00,,0831.3,5.01,0.00,28.4,27.0,00.0,36.7,30.0,19.6,0000.0,0000.34,0001.18,0000.17
2023-05-12 22:15:00,,0831.3,5.00,0.00,28.4,27.0,00.0,36.7,30.0,20.4,0000.0,0000.33,0001.17,0000.17
2023-05-12 22:16:00,,0831.3,5.00,0.00,28.4,27.0,00.0,36.7,30.0,20.2,0000.0,0000.32,0001.15,0000.17
2023-05-12 22:17:00,,0831.2,4.99,0.00,28.4,27.0,00.0,36.7,30.0,19.8,0000.0,0000.32,0001.18,0000.16
2023-05-12 22:18:00,,0831.2,5.01,0.00,28.4,27.0,00.0,36.7,30.0,19.5,0000.0,0000.31,0001.16,0000.16
2023-05-12 22:19:00,,0831.2,5.00,0.00,28.4,27.0,00.0,36.8,30.0,19.6,0000.0,0000.33,0001.22,0000.16
2023-05-12 22:20:00,,0831.2,5.00,0.00,28.4,27.0,00.0,36.8,30.0,19.3,0000.0,0000.32,0001.17,0000.15
2023-05-12 22:21:00,,0831.3,5.01,0.00,28.4,27.0,00.0,36.8,30.0,19.7,0000.0,0000.31,0001.09,0000.15
2023-05-12 22:22:00,,0831.3,5.01,0.00,28.4,27.0,00.0,36.8,30.0,20.1,0000.0,0000.33,0001.09,0000.14
2023-05-12 22:23:00,,0831.3,5.00,0.00,28.4,27.0,00.0,36.8,30.0,20.5,0000.0,0000.30,0000.64,0000.14
2023-05-12 22:24:00,,0831.3,4.99,0.00,28.4,27.0,00.0,36.8,30.1,20.0,0000.0,0000.27,0000.55,0000.14
2023-05-12 22:25:00,,0831.3,5.00,0.00,28.5,27.0,00.0,36.8,30.1,19.6,0000.0,0000.24,0000.48,0000.13
2023-05-12 22:26:00,,0831.2,5.00,0.00,28.5,27.0,00.0,36.8,30.1,20.6,0000.0,0000.24,0000.47,0000.13
2023-05-12 22:27:00,,0831.2,5.00,0.00,28.5,27.0,00.0,36.8,30.1,20.4,0000.0,0000.24,0000.51,0000.13
2023-05-12 22:28:00,,0831.3,5.01,0.00,28.5,27.0,00.0,36.8,30.1,19.6,0000.0,0000.23,0000.55,0000.13
2023-05-12 22:29:00,,0831.3,5.00,0.00,28.5,27.0,00.0,36.8,30.1,19.2,0000.0,0000.23,0000.55,0000.13
2023-05-12 22:30:00,,0831.4,5.00,0.00,28.5,27.0,00.0,36.8,30.1,19.6,0000.0,0000.22,0000.52,0000.13
2023-05-12 22:31:00,,0831.4,5.00,0.00,28.5,27.0,00.0,36.8,30.1,19.7,0000.0,0000.23,0000.55,0000.13
2023-05-12 22:32:00,,0831.3,5.00,0.00,28.5,27.0,00.0,36.8,30.1,20.4,0000.0,0000.24,0000.80,0000.13
2023-05-12 22:33:00,,0831.3,5.01,0.00,28.5,27.1,00.0,36.8,30.1,20.6,0000.0,0000.23,0000.93,0000.13
2023-05-12 22:34:00,,0831.3,5.00,0.00,28.5,27.1,00.0,36.8,30.1,19.8,0000.0,0000.23,0000.93,0000.13
2023-05-12 22:35:00,,0831.3,5.00,0.00,28.5,27.0,00.0,36.8,30.1,20.2,0000.0,0000.25,0001.03,0000.13
2023-05-12 22:36:00,,0831.3,5.00,0.00,28.5,27.0,00.0,36.8,30.1,20.3,0000.0,0000.25,0001.02,0000.13
2023-05-12 22:37:00,,0831.4,5.00,0.00,28.5,27.0,00.0,36.8,30.1,20.4,0000.0,0000.25,0002.19,0000.14
2023-05-12 22:38:00,,0831.3,5.00,0.00,28.5,27.1,00.0,36.8,30.1,20.4,0000.0,0000.24,0002.79,0000.14
2023-05-12 22:39:00,,0831.4,5.00,0.00,28.5,27.1,00.0,36.8,30.1,20.2,0000.0,0000.24,0002.68,0000.14
2023-05-12 22:40:00,,0831.4,5.00,0.00,28.5,27.1,00.0,36.9,30.1,20.1,0000.0,0000.23,0002.65,0000.14
2023-05-12 22:41:00,,0831.4,5.00,0.00,28.5,27.0,00.0,36.9,30.1,20.1,0000.0,0000.23,0002.62,0000.15
2023-05-12 22:42:00,,0831.5,5.00,0.00,28.5,27.0,00.0,36.9,30.1,20.1,0000.0,0000.23,0002.63,0000.15
2023-05-12 22:43:00,,0831.5,5.00,0.00,28.5,27.1,00.0,36.9,30.1,20.5,0000.0,0000.22,0002.35,0000.15
2023-05-12 22:44:00,,0831.4,5.00,0.00,28.5,27.1,00.0,36.9,30.1,20.9,0000.0,0000.21,0002.21,0000.15
2023-05-12 22:45:00,,0831.4,5.00,0.00,28.6,27.1,00.0,36.9,30.1,20.1,0000.0,0000.21,0002.21,0000.16
2023-05-12 22:46:00,,0831.4,5.00,0.00,28.6,27.1,00.0,36.9,30.1,19.8,0000.0,0000.21,0002.14,0000.16
2023-05-12 22:47:00,,0831.4,5.00,0.00,28.6,27.1,00.0,36.9,30.1,20.1,0000.0,0000.23,0002.19,0000.17
2023-05-12 22:48:00,,0831.4,5.00,0.00,28.6,27.1,00.0,36.9,30.1,20.2,0000.0,0000.25,0001.37,0000.18
2023-05-12 22:49:00,,0831.4,5.00,0.00,28.6,27.1,00.0,36.9,30.1,20.5,0000.0,0000.26,0000.46,0000.18
2023-05-12 22:50:00,,0831.5,5.00,0.00,28.6,27.1,00.0,36.9,30.1,20.0,0000.0,0000.27,0000.48,0000.19
2023-05-12 22:51:00,,0831.4,5.00,0.00,28.6,27.1,00.0,36.9,30.2,19.6,0000.0,0000.29,0000.50,0000.19
2023-05-12 22:52:00,,0831.5,5.00,0.00,28.6,27.1,00.0,36.9,30.1,20.2,0000.0,0000.30,0000.55,0000.19
2023-05-12 22:53:00,,0831.5,5.00,0.00,28.6,27.1,00.0,36.9,30.2,20.2,0000.0,0000.29,0000.52,0000.19
2023-05-12 22:54:00,,0831.5,5.00,0.00,28.6,27.1,00.0,36.9,30.2,20.3,0000.0,0000.31,0001.01,0000.20
2023-05-12 22:55:00,,0831.6,5.00,0.00,28.6,27.1,00.0,36.9,30.2,20.6,0000.0,0000.31,0001.41,0000.20
2023-05-12 22:56:00,,0831.5,5.00,0.00,28.6,27.1,00.0,36.9,30.2,20.8,0000.0,0000.31,0001.41,0000.21
2023-05-12 22:57:00,,0831.5,4.99,0.00,28.6,27.1,00.0,36.9,30.2,20.5,0000.0,0000.33,0001.43,0000.21
2023-05-12 22:58:00,,0831.5,5.00,0.00,28.6,27.2,00.0,36.9,30.2,20.8,0000.0,0000.31,0001.38,0000.20
2023-05-12 22:59:00,,0831.5,5.00,0.00,28.6,27.2,00.0,36.9,30.2,20.8,0000.0,0000.30,0001.34,0000.20
